Starlink 35884

operational
NORAD ID: 67044 Int'l Des: 2025-294 Owner: SPXS Country: US Constellation: starlink
LEOCIRCULAR

Über Starlink 35884

Beschreibung wird geladen...

Live-Position

3D-Globus wird geladen...

Nächste Überflüge

Höhenverlauf

Altitude vs Time

uPlot chart will show altitude changes over time

Zweizeiliger Elementsatz

1 67044C 25294Q 25346.87618056 .01013400 00000+0 14638-2 0 3462
2 67044 43.0027 182.5054 0009235 282.4430 331.6691 16.03244483 11
Epoch: 12. Dez. 2025 • Age: 57 hours

Aktueller Status

Höhe 264.5 km
Geschwindigkeit 7.75 km/s
Subsatellitenpunkt -41.93°S, 118.48°W
Startdatum 11. Dez. 2025
Alter 2 days
Typ internet

Technische Details

Klassifizierung Payload
Masse 575.00 kg
Trockenmasse 530.00 kg
Gesamtmasse 575.00 kg
Länge 0.30 m
Durchmesser 4.10 m
Spannweite 29.00 m
Form Box + pan
Hersteller SPXS
Bus-Typ Starlink V2MO
Phasenstatus In Orbit
Besitzer/Staat SPXS/US

Große Konstellationen

Loading constellations...